Location: Unspecified
(43.3830°N, 0.0000°E)
Time: 09:47:58
(UTC+00:00)

N. Korean satellite - Pass Details

Date: 01 December 2020
Orbit: 453 x 502 km, 97.2° (Epoch: 16 January)

Event Time Altitude Azimuth Distance (km) Brightness Sun altitude
Rises 05:42:41 0° 9° (N) 2,563 10.2 -16.0°
Reaches altitude 10° 05:44:45 10° 6° (N) 1,685 9.2 -15.6°
Maximum altitude 05:48:21 66° 284° (WNW) 543 6.5 -15.0°
Drops below altitude 10° 05:51:58 10° 202° (SSW) 1,693 9.3 -14.3°
Sets 05:54:03 0° 200° (SSW) 2,577 10.2 -14.0°
